GW1464 Weather Reports


time (UTC)temp
C
wind
direction
speed
KPH
gust
KPH
rain 1hr
cm
rain 24hr
cm
rain mn
cm
humidity
%
barometer
mb
20260504173100 8 311 11.3 25.7 0.00 0.00 0.00 56 1011.8
20260504171557 9 281 11.3 22.5 0.00 0.00 0.00 56 1011.8
20260504140110 7 337 16.1 32.2 0.00 0.00 0.00 58 1010.3
20260504110119 -1 0 0.0 0.0 0.00 0.00 0.00 91 1009.0
20260504100105 0 0 0.0 0.0 0.00 0.00 0.00 89 1009.1
20260504090120 0 0 0.0 0.0 0.00 0.00 0.00 93 1009.3
20260504081558 -1 0 0.0 0.0 0.00 0.00 0.00 93 1009.6
20260504044604 1 0 0.0 0.0 0.00 0.00 0.00 85 1010.9
20260504043057 1 0 0.0 6.4 0.00 0.00 0.00 84 1011.0
20260504041556 2 0 0.0 0.0 0.00 0.00 0.00 83 1011.2
20260504040107 2 237 0.0 3.2 0.00 0.00 0.00 81 1011.2
20260504034603 3 0 0.0 0.0 0.00 0.00 0.00 80 1011.4
20260504033114 3 0 0.0 0.0 0.00 0.00 0.00 76 1011.2
20260504031558 5 0 0.0 0.0 0.00 0.00 0.00 71 1011.4
20260504030055 7 0 0.0 0.0 0.00 0.00 0.00 68 1011.2
20260504024605 7 0 0.0 0.0 0.00 0.00 0.00 67 1011.1
20260504023055 8 0 0.0 3.2 0.00 0.00 0.00 64 1011.2
20260504021557 9 237 0.0 4.8 0.00 0.00 0.00 62 1011.1
20260504020057 10 237 1.6 3.2 0.00 0.00 0.00 59 1011.2
20260504014558 10 0 0.0 11.3 0.00 0.00 0.00 56 1011.1
20260504013058 11 242 1.6 9.7 0.00 0.00 0.00 53 1011.2
20260504011558 12 202 3.2 12.9 0.00 0.00 0.00 50 1011.4
20260504010101 12 0 0.0 12.9 0.00 0.00 0.00 49 1011.6
20260504004556 12 237 8.0 14.5 0.00 0.00 0.00 48 1011.8
20260504003058 13 206 3.2 14.5 0.00 0.00 0.00 47 1011.8
20260504001614 14 213 1.6 12.9 0.00 0.00 0.00 43 1011.9
20260504000059 14 11 4.8 14.5 0.00 0.00 0.00 42 1012.1
20260503234557 14 198 3.2 22.5 0.00 0.00 0.00 42 1012.4
20260503233057 15 340 4.8 11.3 0.00 0.00 0.00 42 1012.5
20260503231555 14 213 8.0 14.5 0.00 0.00 0.00 43 1012.7
20260503230058 14 223 6.4 22.5 0.00 0.00 0.00 44 1012.8
20260503224557 14 207 6.4 24.1 0.00 0.00 0.00 48 1012.9
20260503223056 13 211 4.8 17.7 0.00 0.00 0.00 47 1012.9
20260503221558 11 200 4.8 17.7 0.00 0.00 0.00 61 1013.3
20260503220112 10 346 4.8 14.5 0.00 0.00 0.00 68 1013.6
20260503214557 9 308 9.7 19.3 0.00 0.00 0.00 70 1014.2
20260503213100 8 274 6.4 24.1 0.00 0.00 0.00 74 1015.1
20260503211609 8 315 11.3 29.0 0.00 0.00 0.00 69 1015.1
20260503210057 12 329 4.8 14.5 0.00 0.00 0.00 51 1014.6
20260503204606 13 307 4.8 17.7 0.00 0.00 0.00 45 1014.2
20260503203059 13 208 4.8 12.9 0.00 0.00 0.00 47 1014.3
20260503201559 13 352 3.2 14.5 0.00 0.00 0.00 47 1014.5
20260503200059 13 226 3.2 14.5 0.00 0.00 0.00 48 1014.5
20260503194557 14 246 4.8 16.1 0.00 0.00 0.00 46 1014.7
20260503193121 14 189 6.4 24.1 0.00 0.00 0.00 47 1014.9
20260503191601 14 213 9.7 20.9 0.00 0.00 0.00 48 1015.2
20260503190059 13 186 6.4 19.3 0.00 0.00 0.00 50 1015.4
20260503184559 13 231 8.0 25.7 0.00 0.00 0.00 49 1015.8
20260503183105 13 286 9.7 22.5 0.00 0.00 0.00 49 1016.0
20260503181622 13 238 6.4 22.5 0.00 0.00 0.00 53 1016.4
20260503180131 12 331 11.3 29.0 0.00 0.00 0.00 54 1016.5
20260503174559 12 236 1.6 17.7 0.00 0.00 0.00 52 1016.7